| time (UTC) | temp C | wind direction | speed KPH | gust KPH | rain 1hr cm | rain 24hr cm | rain mn cm | humidity % | barometer mb |
| 20260510013303 | 11 | 310 | 6.4 | 11.3 | 0.00 | 0.00 | 0.00 | 29 | 1011.4 |
| 20260510012804 | 12 | 343 | 4.8 | 9.7 | 0.00 | 0.00 | 0.00 | 29 | 1011.3 |
| 20260510012306 | 12 | 331 | 6.4 | 14.5 | 0.00 | 0.00 | 0.00 | 29 | 1011.2 |
| 20260510011303 | 12 | 314 | 4.8 | 12.9 | 0.00 | 0.00 | 0.00 | 29 | 1010.9 |
| 20260510010804 | 12 | 333 | 8.0 | 12.9 | 0.00 | 0.00 | 0.00 | 29 | 1010.8 |
| 20260510010303 | 12 | 312 | 8.0 | 19.3 | 0.00 | 0.00 | 0.00 | 29 | 1010.7 |
| 20260510005804 | 12 | 330 | 8.0 | 19.3 | 0.00 | 0.00 | 0.00 | 27 | 1010.6 |
| 20260510004804 | 13 | 343 | 11.3 | 19.3 | 0.00 | 0.00 | 0.00 | 27 | 1010.4 |
| 20260510003304 | 13 | 348 | 12.9 | 25.7 | 0.00 | 0.00 | 0.00 | 27 | 1010.3 |
| 20260510002804 | 13 | 346 | 11.3 | 20.9 | 0.00 | 0.00 | 0.00 | 27 | 1010.2 |
| 20260510002306 | 13 | 352 | 11.3 | 19.3 | 0.00 | 0.00 | 0.00 | 27 | 1010.1 |
| 20260510001804 | 13 | 352 | 11.3 | 24.1 | 0.00 | 0.00 | 0.00 | 27 | 1010.1 |
| 20260510000804 | 14 | 337 | 11.3 | 19.3 | 0.00 | 0.00 | 0.00 | 27 | 1009.9 |
| 20260510000304 | 14 | 334 | 9.7 | 20.9 | 0.00 | 0.00 | 0.00 | 27 | 1009.9 |
| 20260509235804 | 14 | 300 | 8.0 | 22.5 | 0.00 | 0.00 | 0.00 | 27 | 1009.8 |
| 20260509235306 | 14 | 327 | 6.4 | 20.9 | 0.00 | 0.00 | 0.00 | 27 | 1009.8 |
| 20260509234803 | 14 | 337 | 12.9 | 32.2 | 0.00 | 0.00 | 0.00 | 27 | 1009.7 |
| 20260509234303 | 15 | 329 | 11.3 | 25.7 | 0.00 | 0.00 | 0.00 | 27 | 1009.7 |
| 20260509233804 | 15 | 305 | 8.0 | 20.9 | 0.00 | 0.00 | 0.00 | 27 | 1009.6 |
| 20260509233303 | 15 | 326 | 11.3 | 24.1 | 0.00 | 0.00 | 0.00 | 27 | 1009.6 |
| 20260509232804 | 15 | 336 | 8.0 | 19.3 | 0.00 | 0.00 | 0.00 | 27 | 1009.5 |
| 20260509231803 | 15 | 299 | 9.7 | 19.3 | 0.00 | 0.00 | 0.00 | 27 | 1009.3 |
| 20260509231304 | 15 | 348 | 11.3 | 24.1 | 0.00 | 0.00 | 0.00 | 27 | 1009.2 |
| 20260509230804 | 15 | 316 | 14.5 | 32.2 | 0.00 | 0.00 | 0.00 | 27 | 1009.1 |
| 20260509225306 | 15 | 302 | 11.3 | 33.8 | 0.00 | 0.00 | 0.00 | 27 | 1009.0 |
| 20260509224803 | 15 | 349 | 19.3 | 32.2 | 0.00 | 0.00 | 0.00 | 27 | 1008.9 |
| 20260509224304 | 15 | 348 | 19.3 | 29.0 | 0.00 | 0.00 | 0.00 | 27 | 1008.9 |
| 20260509223803 | 15 | 341 | 16.1 | 32.2 | 0.00 | 0.00 | 0.00 | 27 | 1008.9 |
| 20260509223304 | 15 | 303 | 16.1 | 29.0 | 0.00 | 0.00 | 0.00 | 27 | 1008.8 |
| 20260509222804 | 16 | 316 | 19.3 | 32.2 | 0.00 | 0.00 | 0.00 | 27 | 1008.7 |
| 20260509222306 | 16 | 326 | 11.3 | 24.1 | 0.00 | 0.00 | 0.00 | 27 | 1008.7 |
| 20260509221804 | 16 | 355 | 16.1 | 27.4 | 0.00 | 0.00 | 0.00 | 27 | 1008.7 |
| 20260509221303 | 16 | 320 | 12.9 | 27.4 | 0.00 | 0.00 | 0.00 | 27 | 1008.6 |
| 20260509220803 | 16 | 308 | 11.3 | 25.7 | 0.00 | 0.00 | 0.00 | 27 | 1008.5 |
| 20260509220304 | 16 | 322 | 16.1 | 29.0 | 0.00 | 0.00 | 0.00 | 27 | 1008.4 |
| 20260509215804 | 16 | 327 | 16.1 | 29.0 | 0.00 | 0.00 | 0.00 | 30 | 1008.5 |
| 20260509215306 | 16 | 352 | 19.3 | 32.2 | 0.00 | 0.00 | 0.00 | 30 | 1008.4 |
| 20260509214803 | 16 | 337 | 14.5 | 38.6 | 0.00 | 0.00 | 0.00 | 30 | 1008.4 |
| 20260509213803 | 16 | 304 | 16.1 | 41.8 | 0.00 | 0.00 | 0.00 | 30 | 1008.3 |
| 20260509212804 | 16 | 305 | 11.3 | 25.7 | 0.00 | 0.00 | 0.00 | 30 | 1008.2 |
| 20260509212305 | 16 | 311 | 16.1 | 32.2 | 0.00 | 0.00 | 0.00 | 30 | 1008.2 |
| 20260509211803 | 16 | 344 | 14.5 | 25.7 | 0.00 | 0.00 | 0.00 | 30 | 1008.1 |
| 20260509210803 | 16 | 331 | 19.3 | 32.2 | 0.00 | 0.00 | 0.00 | 30 | 1008.1 |
| 20260509210303 | 16 | 328 | 12.9 | 27.4 | 0.00 | 0.00 | 0.00 | 30 | 1008.1 |
| 20260509205803 | 16 | 279 | 12.9 | 24.1 | 0.00 | 0.00 | 0.00 | 29 | 1008.0 |
| 20260509205307 | 16 | 307 | 16.1 | 24.1 | 0.00 | 0.00 | 0.00 | 29 | 1007.9 |
| 20260509204804 | 16 | 330 | 16.1 | 27.4 | 0.00 | 0.00 | 0.00 | 29 | 1008.0 |
| 20260509204304 | 16 | 314 | 17.7 | 27.4 | 0.00 | 0.00 | 0.00 | 29 | 1008.0 |
| 20260509203804 | 16 | 340 | 16.1 | 29.0 | 0.00 | 0.00 | 0.00 | 29 | 1007.9 |
| 20260509203304 | 16 | 327 | 11.3 | 32.2 | 0.00 | 0.00 | 0.00 | 29 | 1007.8 |
| 20260509202306 | 16 | 317 | 16.1 | 27.4 | 0.00 | 0.00 | 0.00 | 29 | 1007.8 |
| 20260509201803 | 16 | 321 | 22.5 | 37.0 | 0.00 | 0.00 | 0.00 | 29 | 1007.7 |
| 20260509201304 | 16 | 348 | 16.1 | 25.7 | 0.00 | 0.00 | 0.00 | 29 | 1007.5 |
| 20260509200304 | 15 | 310 | 12.9 | 22.5 | 0.00 | 0.00 | 0.00 | 29 | 1007.4 |
| 20260509195802 | 15 | 315 | 19.3 | 33.8 | 0.00 | 0.00 | 0.00 | 33 | 1007.5 |
| 20260509195306 | 16 | 306 | 16.1 | 29.0 | 0.00 | 0.00 | 0.00 | 33 | 1007.5 |
| 20260509194303 | 16 | 334 | 19.3 | 37.0 | 0.00 | 0.00 | 0.00 | 33 | 1007.4 |
| 20260509193303 | 16 | 321 | 19.3 | 35.4 | 0.00 | 0.00 | 0.00 | 33 | 1007.4 |
| 20260509192803 | 16 | 351 | 14.5 | 27.4 | 0.00 | 0.00 | 0.00 | 33 | 1007.3 |
| 20260509192305 | 16 | 296 | 12.9 | 29.0 | 0.00 | 0.00 | 0.00 | 33 | 1007.2 |
| 20260509191802 | 16 | 300 | 19.3 | 32.2 | 0.00 | 0.00 | 0.00 | 33 | 1007.2 |
| 20260509191303 | 16 | 334 | 12.9 | 35.4 | 0.00 | 0.00 | 0.00 | 33 | 1007.1 |
| 20260509190802 | 16 | 334 | 12.9 | 29.0 | 0.00 | 0.00 | 0.00 | 33 | 1007.1 |
| 20260509190302 | 16 | 332 | 17.7 | 32.2 | 0.00 | 0.00 | 0.00 | 33 | 1007.0 |
| 20260509185802 | 16 | 322 | 19.3 | 32.2 | 0.00 | 0.00 | 0.00 | 36 | 1007.0 |
| 20260509185306 | 16 | 332 | 22.5 | 32.2 | 0.00 | 0.00 | 0.00 | 36 | 1006.9 |
| 20260509184802 | 16 | 309 | 20.9 | 37.0 | 0.00 | 0.00 | 0.00 | 36 | 1006.9 |
| 20260509184303 | 16 | 310 | 17.7 | 37.0 | 0.00 | 0.00 | 0.00 | 36 | 1006.9 |
| 20260509183803 | 16 | 320 | 16.1 | 33.8 | 0.00 | 0.00 | 0.00 | 36 | 1006.8 |
| 20260509183302 | 15 | 306 | 16.1 | 32.2 | 0.00 | 0.00 | 0.00 | 36 | 1006.8 |
| 20260509182803 | 16 | 291 | 17.7 | 32.2 | 0.00 | 0.00 | 0.00 | 36 | 1006.7 |
| 20260509181803 | 16 | 289 | 14.5 | 32.2 | 0.00 | 0.00 | 0.00 | 36 | 1006.6 |
| 20260509181302 | 16 | 327 | 20.9 | 33.8 | 0.00 | 0.00 | 0.00 | 36 | 1006.5 |
| 20260509180803 | 15 | 306 | 12.9 | 25.7 | 0.00 | 0.00 | 0.00 | 36 | 1006.4 |
| 20260509180302 | 15 | 306 | 19.3 | 33.8 | 0.00 | 0.00 | 0.00 | 36 | 1006.4 |
| 20260509175802 | 16 | 329 | 20.9 | 41.8 | 0.00 | 0.00 | 0.00 | 44 | 1006.3 |
| 20260509175306 | 16 | 329 | 11.3 | 33.8 | 0.00 | 0.00 | 0.00 | 44 | 1006.3 |
| 20260509174802 | 15 | 321 | 12.9 | 32.2 | 0.00 | 0.00 | 0.00 | 44 | 1006.2 |
| 20260509174302 | 15 | 6 | 19.3 | 35.4 | 0.00 | 0.00 | 0.00 | 44 | 1006.1 |
| 20260509173802 | 15 | 324 | 20.9 | 37.0 | 0.00 | 0.00 | 0.00 | 44 | 1006.2 |
| 20260509173302 | 15 | 330 | 14.5 | 35.4 | 0.00 | 0.00 | 0.00 | 44 | 1006.2 |
| 20260509172802 | 15 | 317 | 20.9 | 33.8 | 0.00 | 0.00 | 0.00 | 44 | 1006.2 |
| 20260509172306 | 15 | 345 | 20.9 | 32.2 | 0.00 | 0.00 | 0.00 | 44 | 1006.1 |
| 20260509171802 | 15 | 307 | 14.5 | 27.4 | 0.00 | 0.00 | 0.00 | 44 | 1006.1 |
| 20260509171303 | 15 | 318 | 19.3 | 32.2 | 0.00 | 0.00 | 0.00 | 44 | 1006.1 |
| 20260509170802 | 15 | 283 | 16.1 | 25.7 | 0.00 | 0.00 | 0.00 | 44 | 1006.1 |
| 20260509165803 | 15 | 318 | 12.9 | 35.4 | 0.00 | 0.00 | 0.00 | 54 | 1006.2 |
| 20260509165306 | 15 | 322 | 16.1 | 29.0 | 0.00 | 0.00 | 0.00 | 54 | 1006.2 |
| 20260509164803 | 15 | 322 | 11.3 | 29.0 | 0.00 | 0.00 | 0.00 | 54 | 1006.1 |
| 20260509164302 | 15 | 354 | 19.3 | 27.4 | 0.00 | 0.00 | 0.00 | 54 | 1006.1 |
| 20260509163802 | 14 | 339 | 14.5 | 25.7 | 0.00 | 0.00 | 0.00 | 54 | 1006.2 |
| 20260509163302 | 15 | 339 | 17.7 | 29.0 | 0.00 | 0.00 | 0.00 | 54 | 1006.2 |
| 20260509162802 | 14 | 332 | 14.5 | 32.2 | 0.00 | 0.00 | 0.00 | 54 | 1006.0 |
| 20260509161803 | 14 | 314 | 16.1 | 27.4 | 0.00 | 0.00 | 0.00 | 54 | 1006.0 |
| 20260509161303 | 14 | 351 | 14.5 | 27.4 | 0.00 | 0.00 | 0.00 | 54 | 1005.9 |
| 20260509160302 | 14 | 315 | 14.5 | 27.4 | 0.00 | 0.00 | 0.00 | 54 | 1005.9 |
| 20260509155802 | 14 | 318 | 17.7 | 32.2 | 0.00 | 0.00 | 0.00 | 61 | 1005.8 |
| 20260509155306 | 13 | 330 | 19.3 | 35.4 | 0.00 | 0.00 | 0.00 | 61 | 1005.8 |
| 20260509154803 | 13 | 338 | 16.1 | 29.0 | 0.00 | 0.00 | 0.00 | 61 | 1005.8 |
| 20260509154303 | 13 | 328 | 20.9 | 32.2 | 0.00 | 0.00 | 0.00 | 61 | 1005.8 |
| 20260509153803 | 13 | 343 | 19.3 | 29.0 | 0.00 | 0.00 | 0.00 | 61 | 1005.7 |
| 20260509153303 | 13 | 332 | 11.3 | 25.7 | 0.00 | 0.00 | 0.00 | 61 | 1005.7 |
| 20260509152305 | 13 | 340 | 11.3 | 22.5 | 0.00 | 0.00 | 0.00 | 61 | 1005.4 |
| 20260509151802 | 13 | 316 | 11.3 | 25.7 | 0.00 | 0.00 | 0.00 | 61 | 1005.3 |
| 20260509151302 | 13 | 329 | 12.9 | 27.4 | 0.00 | 0.00 | 0.00 | 61 | 1005.2 |
| 20260509150803 | 13 | 349 | 14.5 | 24.1 | 0.00 | 0.00 | 0.00 | 61 | 1005.1 |
| 20260509150303 | 13 | 350 | 9.7 | 25.7 | 0.00 | 0.00 | 0.00 | 61 | 1005.0 |
| 20260509145306 | 12 | 320 | 11.3 | 32.2 | 0.00 | 0.00 | 0.00 | 68 | 1004.8 |
| 20260509144302 | 11 | 297 | 16.1 | 29.0 | 0.00 | 0.00 | 0.00 | 68 | 1004.7 |
| 20260509143803 | 12 | 255 | 12.9 | 27.4 | 0.00 | 0.00 | 0.00 | 68 | 1004.6 |
| 20260509143302 | 12 | 322 | 11.3 | 22.5 | 0.00 | 0.00 | 0.00 | 68 | 1004.5 |
| 20260509142803 | 12 | 320 | 17.7 | 25.7 | 0.00 | 0.00 | 0.00 | 68 | 1004.5 |
| 20260509142306 | 12 | 318 | 16.1 | 32.2 | 0.00 | 0.00 | 0.00 | 68 | 1004.4 |
| 20260509141802 | 12 | 312 | 11.3 | 32.2 | 0.00 | 0.00 | 0.00 | 68 | 1004.3 |
| 20260509141302 | 12 | 318 | 16.1 | 32.2 | 0.00 | 0.00 | 0.00 | 68 | 1004.2 |
| 20260509140802 | 12 | 309 | 16.1 | 27.4 | 0.00 | 0.00 | 0.00 | 68 | 1004.2 |
| 20260509140302 | 12 | 313 | 17.7 | 33.8 | 0.00 | 0.00 | 0.00 | 68 | 1004.1 |
| 20260509135802 | 12 | 316 | 20.9 | 35.4 | 0.00 | 0.00 | 0.00 | 64 | 1004.0 |
| 20260509135305 | 12 | 334 | 14.5 | 37.0 | 0.00 | 0.00 | 0.00 | 64 | 1003.9 |
| 20260509134803 | 12 | 322 | 19.3 | 32.2 | 0.00 | 0.00 | 0.00 | 64 | 1003.7 |
| 20260509134303 | 12 | 307 | 9.7 | 29.0 | 0.00 | 0.00 | 0.00 | 64 | 1003.5 |
| 20260509133803 | 12 | 299 | 16.1 | 27.4 | 0.00 | 0.00 | 0.00 | 64 | 1003.4 |
| 20260509133303 | 12 | 304 | 20.9 | 33.8 | 0.00 | 0.00 | 0.00 | 64 | 1003.4 |
| 20260509131803 | 12 | 284 | 9.7 | 20.9 | 0.00 | 0.00 | 0.00 | 64 | 1003.3 |
| 20260509131302 | 12 | 280 | 6.4 | 14.5 | 0.00 | 0.00 | 0.00 | 64 | 1003.2 |
| 20260509130803 | 12 | 278 | 4.8 | 14.5 | 0.00 | 0.00 | 0.00 | 64 | 1003.2 |
| 20260509130303 | 12 | 291 | 8.0 | 19.3 | 0.00 | 0.00 | 0.00 | 62 | 1003.1 |
| 20260509125802 | 12 | 324 | 9.7 | 19.3 | 0.00 | 0.00 | 0.00 | 54 | 1003.0 |
| 20260509125307 | 12 | 324 | 8.0 | 19.3 | 0.00 | 0.00 | 0.00 | 54 | 1002.8 |
| 20260509124803 | 12 | 322 | 8.0 | 14.5 | 0.00 | 0.00 | 0.00 | 54 | 1002.8 |
| 20260509124302 | 11 | 311 | 3.2 | 8.0 | 0.00 | 0.00 | 0.00 | 54 | 1002.8 |
| 20260509123803 | 11 | 306 | 1.6 | 8.0 | 0.00 | 0.00 | 0.00 | 54 | 1002.8 |
| 20260509123302 | 11 | 270 | 0.0 | 3.2 | 0.00 | 0.00 | 0.00 | 54 | 1002.8 |
| 20260509122802 | 10 | 250 | 1.6 | 3.2 | 0.00 | 0.00 | 0.00 | 54 | 1002.7 |
| 20260509122305 | 10 | 253 | 1.6 | 4.8 | 0.00 | 0.00 | 0.00 | 54 | 1002.8 |
| 20260509121302 | 9 | 0 | 0.0 | 3.2 | 0.00 | 0.00 | 0.00 | 54 | 1002.7 |
| 20260509120802 | 8 | 0 | 3.2 | 4.8 | 0.00 | 0.00 | 0.00 | 54 | 1002.8 |
| 20260509115802 | 8 | 0 | 1.6 | 3.2 | 0.00 | 0.00 | 0.00 | 50 | 1002.5 |
| 20260509115306 | 8 | 0 | 0.0 | 1.6 | 0.00 | 0.00 | 0.00 | 50 | 1002.2 |
| 20260509114802 | 8 | 0 | 0.0 | 1.6 | 0.00 | 0.00 | 0.00 | 50 | 1002.1 |
| 20260509114302 | 9 | 0 | 0.0 | 0.0 | 0.00 | 0.00 | 0.00 | 50 | 1002.0 |
| 20260509113802 | 9 | 0 | 0.0 | 1.6 | 0.00 | 0.00 | 0.00 | 50 | 1002.1 |
| 20260509113303 | 9 | 0 | 3.2 | 8.0 | 0.00 | 0.00 | 0.00 | 50 | 1002.2 |
| 20260509112306 | 8 | 0 | 3.2 | 8.0 | 0.00 | 0.00 | 0.00 | 50 | 1001.9 |
| 20260509111303 | 9 | 0 | 1.6 | 4.8 | 0.00 | 0.00 | 0.00 | 50 | 1002.4 |
| 20260509110303 | 8 | 0 | 3.2 | 8.0 | 0.00 | 0.00 | 0.00 | 52 | 1002.2 |
| 20260509105802 | 8 | 0 | 3.2 | 8.0 | 0.00 | 0.00 | 0.00 | 63 | 1002.2 |
| 20260509105305 | 8 | 0 | 3.2 | 8.0 | 0.00 | 0.00 | 0.00 | 63 | 1002.1 |
| 20260509104802 | 7 | 0 | 3.2 | 4.8 | 0.00 | 0.00 | 0.00 | 63 | 1002.0 |
| 20260509103802 | 7 | 0 | 0.0 | 4.8 | 0.00 | 0.00 | 0.00 | 63 | 1001.6 |
| 20260509103302 | 7 | 0 | 1.6 | 4.8 | 0.00 | 0.00 | 0.00 | 63 | 1001.8 |
| 20260509102803 | 7 | 356 | 1.6 | 4.8 | 0.00 | 0.00 | 0.00 | 63 | 1001.9 |
| 20260509102305 | 7 | 0 | 0.0 | 0.0 | 0.00 | 0.00 | 0.00 | 63 | 1001.8 |
| 20260509101803 | 7 | 0 | 0.0 | 1.6 | 0.00 | 0.00 | 0.00 | 63 | 1001.9 |
| 20260509100802 | 8 | 0 | 1.6 | 8.0 | 0.00 | 0.00 | 0.00 | 63 | 1001.8 |
| 20260509100303 | 7 | 0 | 3.2 | 8.0 | 0.00 | 0.00 | 0.00 | 63 | 1001.7 |
| 20260509095803 | 6 | 266 | 8.0 | 19.3 | 0.00 | 0.00 | 0.00 | 58 | 1001.7 |
| 20260509095305 | 5 | 299 | 9.7 | 20.9 | 0.00 | 0.00 | 0.00 | 58 | 1001.8 |
| 20260509094803 | 5 | 233 | 0.0 | 0.0 | 0.00 | 0.00 | 0.00 | 58 | 1001.0 |
| 20260509092305 | 5 | 236 | 0.0 | 0.0 | 0.00 | 0.00 | 0.00 | 58 | 1001.2 |
| 20260509091803 | 5 | 237 | 0.0 | 0.0 | 0.00 | 0.00 | 0.00 | 58 | 1001.3 |
| 20260509091302 | 5 | 236 | 0.0 | 0.0 | 0.00 | 0.00 | 0.00 | 58 | 1001.2 |
| 20260509090803 | 5 | 237 | 0.0 | 0.0 | 0.00 | 0.00 | 0.00 | 58 | 1001.2 |
| 20260509090303 | 5 | 238 | 0.0 | 0.0 | 0.00 | 0.00 | 0.00 | 58 | 1001.3 |
| 20260509085803 | 5 | 239 | 0.0 | 0.0 | 0.00 | 0.00 | 0.00 | 61 | 1001.2 |
| 20260509085306 | 5 | 240 | 0.0 | 0.0 | 0.00 | 0.00 | 0.00 | 61 | 1001.2 |
| 20260509084803 | 5 | 240 | 0.0 | 0.0 | 0.00 | 0.00 | 0.00 | 61 | 1001.2 |
| 20260509083802 | 5 | 240 | 0.0 | 0.0 | 0.00 | 0.00 | 0.00 | 61 | 1001.2 |
| 20260509083303 | 5 | 240 | 0.0 | 0.0 | 0.00 | 0.00 | 0.00 | 61 | 1001.2 |
| 20260509082803 | 5 | 242 | 0.0 | 0.0 | 0.00 | 0.00 | 0.00 | 61 | 1001.2 |
| 20260509082306 | 5 | 241 | 0.0 | 0.0 | 0.00 | 0.00 | 0.00 | 61 | 1001.3 |
| 20260509081802 | 5 | 241 | 0.0 | 0.0 | 0.00 | 0.00 | 0.00 | 61 | 1001.0 |
| 20260509081302 | 5 | 242 | 0.0 | 0.0 | 0.00 | 0.00 | 0.00 | 61 | 1000.9 |
| 20260509080803 | 5 | 242 | 0.0 | 0.0 | 0.00 | 0.00 | 0.00 | 61 | 1000.9 |
| 20260509080302 | 5 | 242 | 0.0 | 0.0 | 0.00 | 0.00 | 0.00 | 59 | 1000.9 |
| 20260509075802 | 5 | 242 | 0.0 | 0.0 | 0.00 | 0.00 | 0.00 | 48 | 1001.0 |
| 20260509075306 | 5 | 242 | 0.0 | 0.0 | 0.00 | 0.00 | 0.00 | 48 | 1001.0 |
| 20260509074803 | 5 | 243 | 0.0 | 0.0 | 0.00 | 0.00 | 0.00 | 48 | 1001.2 |
| 20260509074302 | 6 | 243 | 0.0 | 0.0 | 0.00 | 0.00 | 0.00 | 48 | 1001.2 |
| 20260509073803 | 6 | 242 | 0.0 | 0.0 | 0.00 | 0.00 | 0.00 | 48 | 1001.2 |
| 20260509073302 | 6 | 243 | 0.0 | 0.0 | 0.00 | 0.00 | 0.00 | 48 | 1001.3 |
| 20260509072803 | 6 | 242 | 0.0 | 0.0 | 0.00 | 0.00 | 0.00 | 48 | 1001.3 |
| 20260509072306 | 6 | 243 | 0.0 | 0.0 | 0.00 | 0.00 | 0.00 | 48 | 1001.4 |
| 20260509071803 | 6 | 242 | 0.0 | 0.0 | 0.00 | 0.00 | 0.00 | 48 | 1001.4 |
| 20260509071302 | 6 | 243 | 0.0 | 0.0 | 0.00 | 0.00 | 0.00 | 48 | 1001.4 |
| 20260509070803 | 6 | 242 | 0.0 | 0.0 | 0.00 | 0.00 | 0.00 | 48 | 1001.5 |
| 20260509065803 | 6 | 274 | 0.0 | 0.0 | 0.00 | 0.00 | 0.00 | 42 | 1001.6 |
| 20260509064802 | 7 | 262 | 0.0 | 0.0 | 0.00 | 0.00 | 0.00 | 42 | 1001.8 |
| 20260509064303 | 7 | 262 | 0.0 | 0.0 | 0.00 | 0.00 | 0.00 | 42 | 1001.8 |
| 20260509063803 | 7 | 265 | 0.0 | 0.0 | 0.00 | 0.00 | 0.00 | 42 | 1001.9 |
| 20260509063302 | 7 | 260 | 0.0 | 0.0 | 0.00 | 0.00 | 0.00 | 42 | 1001.8 |
| 20260509062802 | 8 | 259 | 0.0 | 0.0 | 0.00 | 0.00 | 0.00 | 42 | 1002.0 |
| 20260509062305 | 8 | 274 | 0.0 | 0.0 | 0.00 | 0.00 | 0.00 | 42 | 1002.1 |
| 20260509061803 | 8 | 262 | 0.0 | 0.0 | 0.00 | 0.00 | 0.00 | 42 | 1001.9 |
| 20260509061302 | 8 | 0 | 0.0 | 0.0 | 0.00 | 0.00 | 0.00 | 42 | 1001.9 |
| 20260509060802 | 9 | 235 | 0.0 | 0.0 | 0.00 | 0.00 | 0.00 | 42 | 1001.9 |
| 20260509060302 | 10 | 237 | 0.0 | 0.0 | 0.00 | 0.00 | 0.00 | 42 | 1002.0 |
| 20260509055306 | 10 | 240 | 0.0 | 0.0 | 0.00 | 0.00 | 0.00 | 37 | 1002.1 |
| 20260509054802 | 10 | 244 | 0.0 | 1.6 | 0.00 | 0.00 | 0.00 | 37 | 1002.2 |
| 20260509053802 | 10 | 311 | 0.0 | 0.0 | 0.00 | 0.00 | 0.00 | 37 | 1002.2 |
| 20260509053302 | 11 | 341 | 0.0 | 1.6 | 0.00 | 0.00 | 0.00 | 37 | 1002.2 |
| 20260509052803 | 11 | 348 | 0.0 | 3.2 | 0.00 | 0.00 | 0.00 | 37 | 1002.2 |
| 20260509052306 | 11 | 239 | 1.6 | 3.2 | 0.00 | 0.00 | 0.00 | 37 | 1002.3 |
| 20260509050811 | 12 | 267 | 1.6 | 3.2 | 0.00 | 0.00 | 0.00 | 37 | 1002.3 |
| 20260509050302 | 12 | 230 | 1.6 | 4.8 | 0.00 | 0.00 | 0.00 | 37 | 1002.3 |
| 20260509045802 | 13 | 262 | 1.6 | 9.7 | 0.00 | 0.00 | 0.00 | 34 | 1002.3 |
| 20260509045306 | 13 | 290 | 1.6 | 4.8 | 0.00 | 0.00 | 0.00 | 34 | 1002.3 |
| 20260509044302 | 13 | 268 | 3.2 | 12.9 | 0.00 | 0.00 | 0.00 | 34 | 1002.2 |
| 20260509043803 | 13 | 279 | 4.8 | 12.9 | 0.00 | 0.00 | 0.00 | 34 | 1002.2 |
| 20260509043303 | 14 | 289 | 8.0 | 12.9 | 0.00 | 0.00 | 0.00 | 34 | 1002.1 |
| 20260509042803 | 14 | 256 | 4.8 | 12.9 | 0.00 | 0.00 | 0.00 | 34 | 1002.1 |
| 20260509041803 | 14 | 278 | 4.8 | 12.9 | 0.00 | 0.00 | 0.00 | 34 | 1002.0 |
| 20260509041302 | 14 | 267 | 6.4 | 11.3 | 0.00 | 0.00 | 0.00 | 34 | 1002.0 |
| 20260509040803 | 14 | 285 | 8.0 | 14.5 | 0.00 | 0.00 | 0.00 | 34 | 1002.0 |
| 20260509040302 | 14 | 281 | 8.0 | 14.5 | 0.00 | 0.00 | 0.00 | 34 | 1002.0 |
| 20260509035803 | 14 | 277 | 4.8 | 12.9 | 0.00 | 0.00 | 0.00 | 34 | 1001.9 |
| 20260509033802 | 14 | 251 | 3.2 | 4.8 | 0.00 | 0.00 | 0.00 | 34 | 1001.9 |
| 20260509033303 | 14 | 267 | 3.2 | 4.8 | 0.00 | 0.00 | 0.00 | 34 | 1001.9 |
| 20260509032802 | 14 | 279 | 3.2 | 12.9 | 0.00 | 0.00 | 0.00 | 34 | 1001.8 |
| 20260509032306 | 14 | 274 | 4.8 | 11.3 | 0.00 | 0.00 | 0.00 | 34 | 1001.8 |
| 20260509031803 | 14 | 245 | 3.2 | 11.3 | 0.00 | 0.00 | 0.00 | 34 | 1001.7 |
| 20260509030802 | 15 | 267 | 3.2 | 4.8 | 0.00 | 0.00 | 0.00 | 34 | 1001.6 |
| 20260509030302 | 15 | 263 | 3.2 | 4.8 | 0.00 | 0.00 | 0.00 | 34 | 1001.6 |
| 20260509025803 | 14 | 259 | 1.6 | 4.8 | 0.00 | 0.00 | 0.00 | 29 | 1001.5 |
| 20260509025306 | 15 | 262 | 3.2 | 8.0 | 0.00 | 0.00 | 0.00 | 29 | 1001.5 |
| 20260509024802 | 14 | 305 | 3.2 | 9.7 | 0.00 | 0.00 | 0.00 | 29 | 1001.4 |
| 20260509024303 | 14 | 269 | 3.2 | 4.8 | 0.00 | 0.00 | 0.00 | 29 | 1001.4 |
| 20260509023803 | 14 | 260 | 1.6 | 11.3 | 0.00 | 0.00 | 0.00 | 29 | 1001.3 |
| 20260509023303 | 14 | 246 | 1.6 | 4.8 | 0.00 | 0.00 | 0.00 | 29 | 1001.2 |
| 20260509022803 | 14 | 283 | 0.0 | 3.2 | 0.00 | 0.00 | 0.00 | 29 | 1001.2 |
| 20260509022306 | 14 | 285 | 1.6 | 4.8 | 0.00 | 0.00 | 0.00 | 29 | 1001.2 |
| 20260509021803 | 15 | 285 | 1.6 | 4.8 | 0.00 | 0.00 | 0.00 | 29 | 1001.1 |
| 20260509021302 | 15 | 298 | 3.2 | 11.3 | 0.00 | 0.00 | 0.00 | 29 | 1001.1 |
| 20260509020803 | 15 | 317 | 3.2 | 4.8 | 0.00 | 0.00 | 0.00 | 29 | 1001.0 |
| 20260509020303 | 15 | 305 | 0.0 | 1.6 | 0.00 | 0.00 | 0.00 | 29 | 1000.9 |
| 20260509015306 | 15 | 317 | 0.0 | 1.6 | 0.00 | 0.00 | 0.00 | 25 | 1000.8 |
| 20260509014802 | 16 | 318 | 1.6 | 4.8 | 0.00 | 0.00 | 0.00 | 25 | 1000.7 |
| 20260509014302 | 16 | 334 | 0.0 | 3.2 | 0.00 | 0.00 | 0.00 | 25 | 1000.7 |